Temp
-13 -13 -13 -13 -13 -13 -13 -13 -13 -13 -14 -14 -14 -14 -14 -14 -14 -14 -14 -14 -15 -15 -15 -15 -15 -15 -15 -15 -15 -15 -16 -16 -16 -16 -16 -16 -16 -16 -16 -16 -16 -16
-13 -13 -13 -13 -13 -13 -13 -13 -13 -13 -14 -14 -14 -14 -14 -14 -14 -14 -14 -14 -15 -15 -15 -15 -15 -15 -15 -15 -15 -15 -16 -16 -16 -16 -16 -16 -16 -16 -16 -16 -17 -17
-13 -13 -13 -13 -13 -13 -13 -13 -13 -13 -14 -14 -14 -14 -14 -14 -14 -14 -14 -14 -15 -15 -15 -15 -15 -15 -15 -15 -16 -16 -16 -16 -16 -16 -16 -16 -16 -16 -17 -17 -17 -17
-13 -13 -13 -13 -13 -13 -13 -13 -13 -14 -14 -14 -14 -14 -14 -14 -14 -14 -14 -15 -15 -15 -15 -15 -15 -15 -15 -16 -16 -16 -16 -16 -16 -16 -16 -16 -17 -17 -17 -17 -17 -17
-13 -13 -13 -13 -13 -13 -13 -13 -13 -14 -14 -14 -14 -14 -14 -14 -14 -14 -15 -15 -15 -15 -15 -15 -15 -16 -16 -16 -16 -16 -16 -16 -16 -16 -16 -16 -17 -17 -17 -17 -17 -17
-13 -13 -13 -13 -13 -13 -13 -13 -13 -14 -14 -14 -14 -14 -14 -14 -15 -15 -15 -15 -15 -15 -15 -15 -16 -16 -16 -16 -16 -16 -16 -16 -16 -16 -16 -17 -17 -17 -17 -17 -17 -17
-13 -13 -13 -13 -13 -13 -13 -13 -13 -14 -14 -14 -14 -14 -14 -15 -15 -15 -15 -15 -15 -15 -15 -16 -16 -16 -16 -16 -16 -16 -16 -16 -16 -16 -17 -17 -17 -17 -17 -17 -17 -17
-13 -13 -13 -13 -13 -13 -13 -13 -13 -14 -14 -14 -14 -14 -14 -15 -15 -15 -15 -15 -15 -16 -16 -16 -16 -16 -16 -16 -16 -16 -16 -17 -17 -17 -17 -17 -17 -17 -18 -18 -18 -18
-13 -13 -13 -13 -13 -13 -14 -14 -14 -14 -14 -14 -14 -14 -15 -15 -15 -15 -15 -15 -16 -16 -16 -16 -16 -16 -16 -16 -16 -17 -17 -17 -17 -17 -17 -17 -17 -17 -18 -18 -18 -18
-13 -13 -13 -13 -14 -14 -14 -14 -14 -14 -14 -14 -15 -15 -15 -15 -15 -15 -15 -16 -16 -16 -16 -16 -16 -16 -16 -17 -17 -17 -17 -17 -17 -17 -17 -18 -18 -18 -18 -18 -18 -18
-13 -13 -14 -14 -14 -14 -14 -14 -14 -14 -15 -15 -15 -15 -15 -15 -15 -16 -16 -16 -16 -16 -16 -16 -16 -16 -17 -17 -17 -17 -17 -17 -17 -17 -18 -18 -18 -18 -18 -18 -18 -18
-14 -14 -14 -14 -14 -14 -14 -14 -15 -15 -15 -15 -15 -15 -15 -15 -16 -16 -16 -16 -16 -16 -16 -16 -16 -17 -17 -17 -17 -17 -17 -17 -18 -18 -18 -18 -18 -18 -18 -18 -18 -18
-14 -15 -15 -15 -15 -15 -15 -15 -15 -15 -15 -15 -15 -15 -15 -16 -16 -16 -16 -16 -16 -16 -16 -17 -17 -17 -17 -17 -17 -18 -18 -18 -18 -18 -18 -18 -18 -18 -18 -18 -19 -19
-15 -15 -15 -15 -15 -15 -15 -15 -15 -15 -15 -15 -15 -15 -16 -16 -16 -16 -16 -16 -16 -17 -17 -17 -17 -17 -17 -17 -18 -18 -18 -18 -18 -18 -18 -18 -18 -18 -19 -19 -19 -19
-15 -15 -15 -16 -16 -16 -15 -15 -15 -15 -15 -15 -15 -16 -16 -16 -16 -16 -16 -16 -17 -17 -17 -17 -17 -17 -17 -18 -18 -18 -18 -18 -18 -18 -18 -18 -18 -19 -19 -19 -19 -19
-15 -16 -16 -16 -15 -15 -15 -15 -15 -15 -15 -16 -16 -16 -16 -16 -16 -16 -17 -17 -17 -17 -17 -17 -17 -17 -17 -18 -18 -18 -18 -18 -18 -18 -18 -18 -18 -18 -19 -19 -19 -19
-15 -15 -15 -15 -15 -15 -15 -15 -15 -15 -16 -16 -16 -16 -16 -16 -17 -17 -17 -17 -17 -17 -17 -17 -17 -17 -18 -18 -18 -18 -18 -18 -18 -18 -18 -18 -19 -19 -19 -19 -19 -19
-15 -15 -15 -15 -15 -15 -15 -16 -16 -16 -16 -16 -16 -16 -16 -17 -17 -17 -17 -17 -17 -17 -17 -17 -17 -17 -18 -18 -18 -18 -18 -18 -18 -18 -18 -19 -19 -19 -19 -19 -19 -19
-15 -15 -16 -16 -16 -16 -16 -16 -16 -16 -16 -16 -16 -16 -17 -17 -17 -17 -17 -17 -17 -17 -17 -17 -17 -17 -17 -18 -18 -18 -18 -18 -18 -18 -18 -19 -19 -19 -19 -19 -20 -20
-15 -16 -16 -16 -16 -16 -16 -16 -16 -16 -16 -16 -16 -17 -17 -17 -17 -17 -17 -17 -17 -17 -17 -17 -17 -17 -17 -18 -18 -18 -18 -18 -18 -18 -18 -19 -19 -19 -19 -20 -20 -20
-15 -16 -16 -16 -16 -16 -16 -16 -16 -16 -16 -17 -17 -17 -17 -17 -17 -17 -17 -17 -17 -17 -17 -17 -17 -17 -17 -18 -18 -18 -18 -18 -18 -18 -19 -19 -19 -20 -20 -20 -20 -20
-16 -16 -16 -16 -16 -16 -16 -16 -16 -16 -17 -17 -17 -17 -17 -17 -17 -17 -17 -17 -17 -17 -17 -17 -17 -17 -17 -18 -18 -18 -18 -18 -18 -19 -19 -19 -20 -20 -20 -20 -21 -21
-16 -16 -16 -16 -16 -16 -16 -16 -16 -17 -17 -17 -17 -17 -17 -17 -17 -17 -17 -17 -17 -17 -17 -17 -17 -17 -18 -18 -18 -18 -18 -18 -19 -19 -19 -20 -20 -20 -20 -21 -21 -21
-16 -16 -16 -16 -16 -16 -16 -16 -16 -16 -17 -17 -16 -16 -16 -16 -17 -17 -17 -17 -17 -17 -17 -17 -17 -17 -18 -18 -18 -18 -19 -19 -19 -19 -20 -20 -20 -20 -21 -21 -21 -21
-16 -16 -16 -16 -16 -16 -16 -16 -16 -16 -16 -16 -16 -16 -16 -17 -17 -17 -17 -17 -17 -17 -17 -17 -18 -18 -18 -18 -18 -19 -19 -19 -20 -20 -20 -20 -20 -20 -21 -21 -21 -21
-16 -16 -16 -16 -16 -16 -16 -16 -16 -16 -16 -16 -16 -16 -16 -16 -17 -17 -17 -17 -17 -17 -17 -18 -18 -18 -18 -19 -19 -19 -20 -20 -20 -20 -20 -20 -21 -21 -21 -21 -21 -22
Height
5792 5791 5790 5789 5788 5788 5787 5786 5784 5783 5782 5780 5779 5777 5776 5774 5772 5771 5769 5767 5765 5763 5761 5759 5756 5754 5751 5749 5746 5744 5741 5739 5736 5734 5732 5730 5727 5725 5723 5720 5718 5715
5790 5790 5789 5788 5787 5786 5785 5784 5782 5781 5780 5778 5776 5775 5773 5771 5770 5768 5766 5764 5762 5760 5757 5755 5753 5750 5747 5745 5742 5740 5737 5734 5732 5729 5727 5725 5722 5720 5717 5715 5712 5710
5789 5788 5787 5786 5785 5784 5783 5782 5780 5779 5777 5776 5774 5772 5770 5769 5766 5764 5762 5760 5758 5756 5754 5751 5749 5746 5743 5741 5738 5735 5733 5730 5727 5725 5722 5720 5717 5715 5712 5709 5707 5704
5788 5787 5786 5785 5784 5782 5781 5779 5778 5776 5775 5773 5771 5769 5767 5765 5763 5761 5759 5757 5754 5752 5750 5747 5744 5742 5739 5736 5734 5731 5728 5726 5723 5720 5717 5715 5712 5709 5707 5704 5700 5697
5786 5785 5784 5783 5781 5780 5778 5777 5775 5773 5772 5770 5768 5766 5764 5761 5759 5757 5755 5753 5751 5748 5745 5743 5740 5737 5734 5731 5729 5726 5724 5721 5718 5715 5712 5710 5707 5704 5701 5698 5694 5691
5784 5783 5781 5780 5779 5777 5776 5774 5772 5770 5768 5766 5764 5762 5760 5758 5755 5753 5751 5749 5747 5744 5741 5738 5735 5733 5729 5726 5724 5721 5718 5715 5713 5710 5707 5705 5702 5699 5695 5692 5688 5685
5781 5780 5778 5777 5776 5774 5772 5770 5769 5767 5765 5763 5761 5759 5757 5754 5752 5750 5748 5745 5743 5740 5737 5734 5731 5728 5725 5722 5718 5716 5713 5710 5707 5705 5702 5699 5696 5693 5690 5686 5683 5679
5779 5777 5776 5774 5772 5770 5768 5767 5765 5763 5761 5759 5758 5755 5753 5751 5749 5746 5744 5741 5738 5735 5733 5730 5727 5723 5720 5717 5713 5710 5708 5705 5702 5700 5696 5694 5691 5688 5684 5681 5677 5674
5776 5774 5773 5771 5769 5767 5765 5763 5761 5759 5757 5755 5754 5751 5749 5747 5745 5742 5739 5737 5734 5731 5728 5725 5722 5719 5715 5712 5709 5706 5703 5700 5697 5694 5691 5687 5684 5681 5677 5674 5671 5667
5773 5771 5769 5767 5765 5763 5761 5759 5757 5755 5753 5751 5749 5747 5745 5743 5740 5738 5735 5733 5730 5727 5724 5721 5718 5714 5711 5708 5704 5701 5698 5695 5692 5689 5685 5680 5677 5674 5670 5667 5663 5660
5770 5768 5766 5764 5762 5760 5758 5756 5753 5752 5750 5747 5745 5743 5741 5739 5737 5734 5732 5729 5726 5723 5720 5717 5714 5710 5706 5703 5700 5696 5693 5690 5686 5681 5678 5674 5670 5667 5663 5659 5656 5652
5767 5764 5763 5761 5758 5756 5754 5752 5750 5748 5746 5744 5742 5740 5738 5735 5733 5731 5728 5725 5722 5719 5716 5712 5709 5705 5701 5698 5695 5691 5686 5683 5679 5674 5670 5666 5663 5659 5656 5652 5648 5644
5763 5761 5759 5757 5755 5752 5751 5749 5747 5745 5743 5741 5739 5737 5734 5732 5729 5727 5724 5721 5718 5715 5711 5707 5703 5699 5696 5692 5689 5685 5680 5676 5671 5667 5663 5659 5655 5652 5648 5644 5640 5637
5760 5758 5756 5754 5752 5750 5748 5746 5744 5741 5739 5737 5735 5733 5730 5728 5726 5723 5720 5717 5713 5709 5706 5701 5697 5693 5690 5687 5683 5678 5674 5669 5665 5661 5657 5653 5649 5645 5641 5637 5633 5629
5757 5755 5753 5751 5749 5747 5745 5742 5740 5738 5736 5734 5731 5729 5727 5724 5722 5719 5716 5712 5708 5704 5699 5695 5691 5687 5684 5681 5677 5673 5668 5664 5659 5654 5650 5647 5643 5639 5634 5630 5626 5622
5753 5751 5749 5747 5745 5743 5741 5739 5737 5735 5733 5730 5728 5726 5724 5721 5718 5714 5711 5706 5702 5698 5694 5690 5686 5683 5679 5675 5671 5666 5662 5657 5652 5648 5643 5639 5635 5631 5627 5622 5618 5614
5751 5749 5747 5745 5743 5741 5739 5737 5734 5732 5730 5728 5725 5723 5720 5717 5713 5709 5705 5701 5698 5694 5690 5686 5682 5678 5674 5670 5665 5660 5656 5651 5646 5641 5637 5632 5627 5622 5618 5614 5609 5605
5749 5747 5745 5743 5741 5739 5736 5734 5731 5729 5727 5725 5722 5719 5716 5712 5708 5705 5701 5697 5694 5690 5686 5681 5677 5673 5668 5664 5659 5654 5649 5644 5639 5634 5630 5625 5619 5614 5609 5604 5600 5595
5748 5745 5743 5741 5738 5736 5733 5731 5729 5727 5724 5722 5718 5715 5711 5708 5704 5701 5698 5694 5690 5686 5681 5677 5672 5668 5663 5659 5654 5648 5643 5638 5632 5628 5623 5617 5611 5606 5601 5595 5589 5585
5745 5743 5740 5738 5735 5733 5731 5729 5726 5724 5721 5717 5714 5710 5707 5704 5701 5698 5694 5690 5685 5680 5676 5672 5668 5663 5658 5653 5648 5642 5637 5631 5626 5621 5615 5610 5603 5597 5591 5586 5580 5574
5743 5741 5738 5736 5733 5731 5729 5726 5723 5720 5717 5713 5710 5707 5704 5701 5697 5694 5689 5685 5681 5675 5671 5668 5663 5658 5653 5648 5642 5637 5631 5626 5620 5615 5609 5602 5596 5589 5582 5575 5569 5562
5741 5739 5736 5734 5731 5728 5725 5722 5719 5716 5713 5710 5707 5704 5701 5697 5693 5689 5685 5680 5676 5671 5666 5662 5658 5653 5648 5642 5637 5631 5626 5620 5614 5608 5601 5595 5588 5580 5573 5566 5557 5549
5739 5736 5733 5730 5728 5725 5722 5719 5716 5713 5710 5707 5704 5700 5697 5693 5689 5685 5680 5676 5671 5666 5661 5657 5653 5648 5642 5637 5631 5626 5620 5614 5608 5601 5594 5587 5580 5572 5563 5555 5547 5537
5736 5733 5730 5727 5724 5722 5719 5716 5713 5710 5707 5704 5700 5697 5693 5689 5685 5681 5676 5672 5667 5662 5656 5651 5647 5643 5637 5631 5625 5620 5614 5607 5601 5594 5586 5578 5571 5563 5554 5544 5534 5524
5734 5731 5728 5725 5722 5719 5716 5714 5710 5707 5704 5701 5697 5693 5690 5685 5681 5677 5672 5667 5662 5657 5652 5646 5642 5637 5632 5625 5619 5613 5606 5599 5592 5586 5578 5569 5560 5552 5543 5533 5521 5509
5732 5729 5727 5723 5719 5716 5714 5711 5708 5704 5701 5698 5694 5690 5686 5682 5677 5673 5668 5663 5658 5652 5647 5642 5636 5632 5626 5619 5612 5605 5598 5591 5584 5576 5569 5560 5549 5538 5529 5519 5508 5496
Wind_Speed
16 16 16 17 18 19 21 21 22 23 24 25 26 26 27 28 29 29 30 30 31 32 32 33 34 34 35 36 36 37 38 38 39 39 40 40 41 42 42 43 43 43
17 17 19 20 21 22 23 24 25 26 26 27 28 29 29 30 31 31 32 32 33 34 34 34 35 36 36 37 38 38 39 40 40 41 42 42 43 43 44 45 45 45
18 19 20 22 24 25 26 27 28 28 29 30 30 31 31 32 33 33 34 34 35 36 36 36 37 38 38 39 39 40 40 41 42 43 43 44 44 45 45 46 47 47
20 21 22 24 25 27 28 29 30 30 31 32 32 33 33 34 35 35 35 36 37 37 38 39 39 40 40 40 41 41 42 43 43 44 45 45 45 46 46 47 48 48
22 23 24 25 26 28 29 31 31 32 32 33 33 34 34 35 36 36 37 37 38 39 39 40 41 42 42 42 43 43 44 44 45 46 46 46 46 46 47 47 48 48
24 25 26 27 28 29 31 32 32 33 33 34 34 35 35 36 37 37 38 39 39 40 41 42 42 43 43 44 45 46 46 47 47 47 47 46 46 47 47 47 47 46
27 28 29 30 31 32 33 33 34 34 34 35 35 36 36 36 37 38 39 39 40 40 41 42 43 44 45 46 47 48 48 49 48 47 47 46 46 46 45 45 45 46
28 29 31 32 32 33 34 35 35 35 35 36 36 36 36 37 38 39 39 40 40 41 42 43 44 45 46 47 48 49 49 48 47 47 47 46 45 44 44 43 44 46
29 30 31 32 33 34 34 35 36 36 36 36 37 37 38 38 38 39 40 40 41 42 43 44 44 46 46 47 48 48 48 47 47 47 47 47 46 45 45 45 46 47
29 30 31 32 33 34 34 35 36 36 36 37 38 38 38 39 39 39 40 41 42 42 43 44 45 46 46 47 47 47 47 47 47 46 46 47 47 47 48 49 49 50
31 32 32 33 34 34 34 35 35 36 36 37 37 37 38 38 38 39 40 41 42 42 43 44 45 45 46 46 46 47 46 46 47 48 48 48 49 50 50 51 52 53
33 34 34 34 34 35 35 35 35 35 36 36 36 36 37 37 38 39 40 41 42 43 43 44 45 45 46 45 45 46 47 48 49 51 51 52 52 52 53 53 54 55
34 35 35 35 35 35 35 35 34 34 34 34 35 35 37 38 39 40 41 41 42 43 44 45 45 46 46 45 46 47 49 50 52 53 54 54 55 55 55 55 55 55
35 34 34 33 34 34 34 33 33 34 34 34 35 36 37 38 39 40 41 42 43 44 45 45 46 47 48 48 49 50 51 52 53 54 55 55 55 55 55 55 55 55
35 34 33 33 33 33 33 33 33 33 34 35 36 36 37 38 39 40 41 42 43 44 45 46 48 50 50 50 51 51 52 54 55 55 55 55 54 54 54 55 55 55
36 35 35 36 35 35 34 34 33 33 34 35 36 36 37 38 39 41 42 43 44 45 46 48 51 52 52 52 53 53 53 54 55 56 56 56 56 56 56 57 57 57
36 36 36 36 35 34 33 33 32 33 33 34 35 36 37 39 40 42 43 44 45 46 48 50 52 53 53 54 54 54 54 55 56 57 57 58 59 59 60 60 60 60
34 34 33 33 32 32 32 32 32 32 33 34 35 37 38 40 41 42 43 44 46 48 50 52 54 54 55 55 54 54 54 56 58 58 59 59 60 61 62 63 64 64
32 32 32 31 31 31 31 32 32 33 34 35 36 38 39 40 41 42 44 46 48 50 52 54 54 55 55 55 55 55 57 58 59 60 61 62 63 64 65 66 67 68
32 32 32 32 32 31 31 32 32 33 35 36 38 39 40 41 42 44 46 48 50 52 53 55 55 55 56 56 56 57 58 59 61 62 63 65 67 68 69 70 71 71
32 32 31 31 30 30 31 32 33 34 36 37 38 40 41 42 44 46 48 50 51 53 54 55 56 56 57 57 57 58 59 61 63 64 66 68 69 71 72 74 75 76
29 30 29 29 30 31 32 34 35 36 37 38 39 41 42 44 46 48 49 51 52 54 56 57 57 57 58 58 58 60 61 63 65 67 69 71 72 74 76 77 79 80
29 29 30 31 32 33 34 35 36 37 38 39 41 42 44 45 47 49 50 52 53 55 57 58 58 58 58 59 60 61 63 65 67 69 72 74 75 77 79 81 82 84
30 32 33 34 35 35 35 36 36 37 39 40 42 44 45 47 48 50 52 53 55 57 58 59 59 58 59 60 61 63 65 67 70 72 74 77 78 80 82 84 86 88
32 33 34 35 35 35 35 36 37 38 40 41 43 45 47 48 49 51 53 55 57 58 59 59 59 59 60 61 63 65 68 70 73 75 78 80 82 84 86 88 90 92
32 32 32 33 35 35 36 36 37 39 41 42 44 46 48 49 50 52 54 56 58 58 58 59 59 60 61 63 65 68 71 73 76 79 81 83 86 88 90 92 92 91
Wind_Direction
298 296 297 297 297 296 294 292 291 291 292 293 294 295 296 298 299 300 301 302 302 303 304 305 306 307 307 307 308 308 307 307 306 305 305 305 305 305 305 305 305 304
295 293 294 295 295 294 293 293 292 292 293 294 295 296 297 298 299 300 301 301 302 303 304 305 305 306 307 308 308 308 308 307 307 307 307 307 307 307 306 306 305 304
293 290 290 291 292 293 293 293 293 293 293 294 296 297 298 299 300 301 302 302 303 304 304 305 305 307 307 308 309 308 308 307 307 308 308 308 308 307 307 307 306 305
292 289 288 288 289 290 291 291 291 292 293 295 296 298 300 301 302 303 303 303 303 304 304 305 306 307 307 308 308 307 307 307 307 308 308 308 308 307 307 307 306 305
291 289 287 286 286 286 287 288 290 291 293 296 298 300 302 303 303 304 304 304 304 304 305 306 307 307 308 308 308 308 308 308 308 308 308 308 308 308 308 307 305 305
291 289 288 287 286 286 287 288 291 294 297 299 301 302 303 304 305 305 305 305 305 306 306 307 308 308 309 309 309 309 309 309 310 310 310 310 310 309 308 306 305 304
292 290 289 289 289 290 291 293 296 298 300 302 302 303 304 305 305 305 305 306 307 307 308 309 309 310 310 309 309 310 310 311 312 312 311 310 309 308 306 304 304 305
293 291 291 292 292 294 296 297 299 301 302 302 303 304 305 305 305 306 307 309 310 310 311 311 311 311 310 310 310 310 311 311 312 311 310 309 308 306 304 304 304 305
296 295 295 296 296 297 298 299 301 302 303 304 305 306 306 307 308 309 311 312 313 313 313 313 312 311 311 310 310 310 311 311 311 310 310 309 309 308 307 307 307 307
302 302 302 302 302 302 302 302 304 305 306 307 307 308 308 309 311 313 314 314 314 314 313 313 312 311 311 311 310 311 312 311 311 311 311 310 310 309 309 309 308 307
310 309 309 310 308 308 308 308 309 309 309 308 308 308 309 311 313 314 314 314 314 314 313 313 312 312 311 312 312 312 313 314 314 313 312 311 311 311 310 310 309 308
315 314 314 314 313 312 312 312 311 310 308 308 308 309 311 313 314 315 315 314 314 314 314 314 313 312 312 314 315 315 316 316 316 315 314 314 313 312 311 310 310 309
316 315 316 315 314 314 313 312 311 309 308 309 310 312 314 315 315 315 315 315 316 315 315 314 314 314 315 318 319 319 318 318 317 316 315 315 314 313 312 311 310 309
315 315 315 314 314 313 313 312 311 310 311 313 315 316 316 316 316 316 317 316 316 315 315 316 316 318 320 322 321 320 318 317 317 316 315 314 314 313 312 311 310 309
316 317 317 316 316 316 315 315 315 316 317 318 318 318 317 317 317 318 317 317 317 318 319 320 320 321 322 322 321 319 318 317 317 316 315 315 314 313 311 310 309 308
321 321 320 320 320 320 319 320 320 320 320 320 319 319 319 319 318 318 319 319 320 321 321 321 321 322 322 321 320 319 319 318 317 316 316 315 314 313 312 311 310 309
322 321 320 320 320 320 320 321 321 322 322 322 322 321 320 319 320 321 322 322 322 322 321 321 322 322 322 322 321 320 319 318 317 317 316 316 315 314 313 312 311 310
320 319 319 319 319 320 323 324 326 326 325 324 322 320 321 322 323 323 323 322 322 322 322 322 323 323 322 322 321 320 319 318 317 317 317 317 316 315 314 313 312 310
319 320 322 323 324 326 329 329 329 327 324 323 322 322 323 324 324 323 323 323 323 322 323 323 323 322 322 322 321 321 319 318 318 319 318 317 317 316 315 314 312 311
325 326 327 328 329 331 330 328 326 324 322 323 324 325 325 324 324 324 323 323 323 323 323 324 323 322 322 322 321 321 320 319 320 320 319 318 317 316 315 314 312 311
329 329 329 329 329 327 325 324 323 324 325 326 326 325 325 325 325 325 324 324 324 323 323 323 323 323 323 322 322 321 320 320 321 320 319 319 318 317 315 314 312 310
329 328 327 325 325 324 324 325 326 327 328 328 327 326 326 326 326 325 325 324 324 323 323 323 323 323 323 323 322 322 322 322 321 321 320 320 319 317 316 314 312 310
328 326 326 325 326 327 328 329 329 328 328 328 327 327 327 327 326 326 325 324 324 324 323 323 324 324 323 323 322 322 322 322 322 322 322 320 319 317 315 314 312 310
330 328 328 328 329 329 329 329 330 329 329 330 329 328 328 327 326 326 325 325 325 324 324 324 324 324 324 324 323 323 324 324 324 323 322 321 319 317 316 314 313 311
330 329 329 328 328 329 330 331 331 331 331 331 330 329 328 327 327 326 326 325 325 325 324 324 324 325 325 325 325 326 326 326 325 324 323 321 320 319 317 316 314 313
329 329 329 328 328 330 332 332 332 332 332 331 329 328 328 327 327 327 326 326 325 325 325 325 325 326 327 327 328 328 328 327 326 325 324 323 322 321 319 318 316 315